Weather observations for the past three days for
Detroit/Grosse Ile, Grosse Ile Airport
Imperial (Metric)
Date Time (edt) Wind (mph) Vis. (mi.) Weather Sky Cond. Temperature (ºF) Relative Humidity Wind Chill (°F) Heat Index (°F) Pressure Precipitation (in)
Air Dwpt 6 hour altimeter (in) sea level (mb) 1 hr 3 hr 6 hr
Max. Min.
17 23:15 NE 5 10.00 Overcast SCT039 BKN047 OVC100 69.6 58.8 69% 29.97 0.0
17 22:55 NE 3 10.00 Overcast SCT034 BKN075 OVC100 69.3 58.3 68% 29.96 0.0
17 22:35 NE 6 10.00 Overcast SCT044 SCT060 OVC100 69.1 58.1 68% 29.96 0.0
17 22:15 NE 3 10.00 Overcast SCT042 BKN095 OVC110 70.5 56.3 61% 29.96 0.0
17 21:55 NE 7 10.00 Overcast BKN040 BKN047 OVC065 73 57 57% 29.95 0.0
17 21:35 N 3 10.00 Overcast BKN037 BKN044 OVC055 73 57.2 58% 29.95 0.0
17 21:15 NE 5 10.00 Overcast SCT043 BKN050 OVC080 73 57.4 58% 29.94 0.0
17 20:55 NE 5 10.00 Overcast SCT050 BKN070 OVC110 73 57.6 58% 29.93 0.0
17 20:35 NE 8 10.00 Overcast SCT065 BKN100 OVC120 73.6 56.5 55% 29.92 0.0
17 20:15 NE 10 10.00 Overcast SCT055 SCT070 OVC100 75.2 57.2 54% 78 29.91 0.0
17 19:55 N 10 G 17 10.00 Overcast SCT055 SCT070 OVC100 79.9 45.9 82 77 30% 79 29.9 0.0
17 19:35 N 9 10.00 Overcast BKN055 BKN085 OVC110 80.2 44.8 29% 79 29.89 0.0
17 19:15 N 12 10.00 Overcast BKN055 OVC100 81 46 29% 80 29.89 0.0
17 18:55 NW 7 10.00 Overcast OVC100 80.2 49.1 34% 80 29.88 0.0
17 18:35 NW 12 G 16 10.00 Overcast SCT050 OVC100 79.9 50 35% 79 29.88 0.0
17 18:15 N 10 10.00 Overcast SCT050 OVC110 81.9 49.1 32% 81 29.88 0.0
17 17:55 NW 13 G 20 10.00 Overcast OVC095 81.5 49.3 33% 80 29.87 0.0
17 17:35 NW 12 G 17 10.00 Overcast SCT070 SCT080 OVC095 81.5 49.1 32% 80 29.87 0.0
17 17:15 N 13 G 16 10.00 Overcast SCT075 OVC095 82 47.3 30% 80 29.87 0.0
17 16:55 N 9 10.00 Overcast SCT050 SCT075 OVC095 79 50.7 37% 79 29.87 0.0
17 16:35 N 8 10.00 Overcast BKN050 BKN075 OVC095 80.4 50.7 36% 80 29.88 0.0
17 16:15 N 5 10.00 Overcast BKN050 BKN065 OVC075 77.5 55.2 46% 79 29.88 0.0
17 15:55 N 3 10.00 Overcast SCT037 BKN050 OVC085 77.4 54.7 46% 79 29.88 0.0
17 15:35 S 8 10.00 Overcast SCT050 BKN090 OVC110 80.8 58.1 46% 81 29.88 0.0
17 15:15 S 9 10.00 Overcast SCT060 OVC100 79.9 60.6 52% 81 29.88 0.0
17 14:55 S 9 10.00 Overcast BKN100 OVC110 79.7 58.5 48% 80 29.87 0.0
17 14:35 S 8 10.00 Mostly Cloudy BKN100 BKN120 79.9 58.3 48% 80 29.87 0.0
17 14:15 S 5 10.00 Mostly Cloudy SCT043 BKN100 79.7 54 41% 80 29.88 0.0
17 13:55 SW 3 10.00 Mostly Cloudy BKN100 80.1 53.1 80.1 71.6 39% 80 29.89 0.0
17 13:35 SW 5 10.00 Mostly Cloudy BKN100 79.3 52 39% 79 29.89 0.0
17 13:15 NW 3 10.00 Mostly Cloudy BKN090 BKN110 79.2 53.4 41% 79 29.9 0.0
17 12:55 NW 5 10.00 Overcast OVC090 79.2 54.3 42% 80 29.9 0.0
17 12:35 W 3 10.00 Overcast OVC090 77.2 53.2 44% 78 29.91 0.0
17 12:15 Calm 10.00 Overcast OVC090 75.7 56.8 52% 78 29.9 0.0
17 11:55 Calm 10.00 Overcast SCT026 OVC100 75.2 58.6 57% 78 29.9 0.0
17 11:35 Calm 10.00 Overcast BKN029 OVC110 75.2 60.1 59% 77 29.89 0.0
17 11:15 Calm 10.00 Overcast SCT029 OVC110 75.4 60.1 59% 78 29.89 0.0
17 10:55 Calm 10.00 Overcast OVC110 77.4 57.2 50% 79 29.89 0.0
17 10:35 Calm 10.00 Overcast OVC110 74.8 63.1 67% 29.88 0.0
17 10:15 N 3 10.00 Overcast OVC110 73.6 64.2 73% 29.88 0.0
17 09:55 N 5 10.00 Mostly Cloudy BKN110 73 66 79% 29.88 0.0
17 09:35 N 5 10.00 Partly Cloudy SCT110 72.5 65.8 80% 29.88 0.0
17 09:15 N 6 10.00 Mostly Cloudy SCT035 SCT060 BKN095 72.1 65.8 81% 29.88 0.0
17 08:55 N 5 10.00 Light Drizzle SCT035 SCT060 BKN095 71.6 65.3 81% 29.88 0.0
17 08:35 NW 6 10.00 Mostly Cloudy SCT070 SCT080 BKN100 71.6 65.5 81% 29.89 0.0
17 08:15 NW 7 10.00 Mostly Cloudy SCT090 BKN110 71.6 65.5 81% 29.89 0.0
17 07:55 NW 5 10.00 Overcast BKN090 OVC110 71.6 65.5 73.9 70.9 81% 29.88 0.0
17 07:35 NW 3 10.00 Mostly Cloudy BKN100 BKN110 71.6 65.3 81% 29.88 0.0
17 07:15 Calm 10.00 Overcast BKN080 OVC100 71.4 65.3 81% 29.87 0.0
17 06:55 Calm 10.00 Overcast BKN080 OVC100 71.1 64.9 81% 29.86 0.0
17 06:35 Calm 10.00 Overcast BKN080 OVC100 71.2 65.1 81% 29.85 0.0
17 06:15 N 3 10.00 Overcast SCT080 BKN100 OVC120 71.2 65.1 81% 29.85 0.0
17 05:55 N 5 10.00 Overcast OVC100 71.2 65.1 81% 29.85 0.0
17 05:35 N 3 10.00 Mostly Cloudy BKN100 BKN120 71.2 65.3 82% 29.84 0.0
17 05:15 NW 3 10.00 Overcast BKN100 OVC120 71.6 65.3 81% 29.84 0.0
17 04:55 NW 3 10.00 Overcast SCT080 BKN090 OVC110 71.6 65.5 81% 29.84 0.0
17 04:35 NW 3 10.00 Overcast SCT080 BKN100 OVC120 71.6 65.5 81% 29.83 0.0
17 04:15 NW 3 10.00 Overcast OVC100 71.4 65.3 81% 29.83 0.0
17 03:55 NW 3 10.00 Overcast OVC100 71.1 64.9 81% 29.83 0.0
17 03:35 Calm 10.00 Overcast BKN100 OVC110 72.5 66.2 81% 29.83 0.0
17 03:15 NW 3 10.00 Mostly Cloudy BKN100 72.7 66.4 81% 29.83 0.0
17 02:55 NW 5 10.00 Mostly Cloudy BKN100 73.4 67.1 81% 29.82 0.0
17 02:35 NW 6 10.00 Mostly Cloudy BKN100 73.9 67.6 81% 29.83 0.0
17 02:15 NW 5 10.00 Mostly Cloudy BKN095 BKN110 73.8 67.5 81% 29.83 0.0
17 01:55 NW 5 10.00 Overcast BKN085 OVC110 73.4 67.1 83.5 73 81% 29.84 0.0 0.02
17 01:35 W 3 10.00 Mostly Cloudy BKN110 73.4 67.1 81% 29.83 0.0
17 01:15 Calm 10.00 Mostly Cloudy BKN110 74.3 68 81% 29.82 0.0
17 00:55 Calm 10.00 Mostly Cloudy SCT095 BKN110 74.7 68.4 81% 29.82 0.0
17 00:35 NW 3 10.00 Mostly Cloudy SCT085 BKN110 74.5 68.2 81% 29.82 0.0
17 00:15 Calm 10.00 Mostly Cloudy BKN110 74.8 68.5 81% 29.82 0.0
16 23:55 NW 3 10.00 Mostly Cloudy BKN110 74.7 68.4 81% 29.81 0.0
16 23:35 W 3 10.00 Overcast SCT060 SCT080 OVC110 75 68.7 81% 76 29.81 0.0
16 23:15 Calm 10.00 Overcast SCT060 BKN085 OVC110 75.6 69.3 81% 76 29.81 0.0
16 22:55 Calm 10.00 Overcast SCT060 BKN070 OVC090 75.7 69.4 81% 77 29.81 0.0 0.02 0.02
16 22:35 NW 7 7.00 Light Rain SCT041 BKN050 OVC060 76.8 70.2 80% 78 29.81 0.0 0.02
16 22:15 Calm 10.00 Overcast BKN044 OVC060 79 65.3 63% 81 29.81 0.0
16 21:55 NW 3 10.00 Mostly Cloudy SCT046 SCT055 BKN120 79 64.6 61% 81 29.81 0.0
16 21:35 W 6 10.00 Mostly Cloudy SCT055 SCT070 BKN110 79.2 64.4 61% 81 29.79 0.0
16 21:15 NW 6 10.00 Mostly Cloudy SCT070 SCT085 BKN120 80.6 64.8 59% 82 29.79 0.0
16 20:55 W 10 10.00 Mostly Cloudy BKN110 81.5 64.2 56% 83 29.78 0.0
16 20:35 W 5 10.00 Mostly Cloudy SCT085 BKN110 81.9 63.9 55% 83 29.77 0.0
16 20:15 SW 6 10.00 Overcast SCT046 BKN085 OVC110 82.8 62.8 51% 84 29.77 0.0
16 19:55 SW 7 10.00 Mostly Cloudy SCT039 BKN046 BKN100 84 61.7 87.1 81.5 47% 85 29.77 0.0
16 19:35 W 3 10.00 Mostly Cloudy SCT041 SCT048 BKN100 84.2 61.9 47% 85 29.76 0.0
16 19:15 SW 5 10.00 Overcast BKN045 BKN060 OVC090 85.3 61 44% 85 29.76 0.0
16 18:55 W 5 10.00 Overcast SCT042 BKN070 OVC110 84.4 60.8 45% 85 29.77 0.0
16 18:35 W 6 10.00 Mostly Cloudy SCT042 SCT070 BKN080 86.2 60.1 41% 86 29.77 0.0
16 18:15 SW 9 10.00 Partly Cloudy SCT042 SCT110 86.4 59.2 40% 86 29.77 0.0
16 17:55 W 9 G 17 10.00 Partly Cloudy SCT060 SCT070 SCT110 86.5 58.5 39% 86 29.78 0.0
16 17:35 SW 13 G 16 10.00 Mostly Cloudy SCT042 BKN060 BKN070 86.5 59.5 40% 86 29.78 0.0
16 17:15 SW 8 10.00 Overcast BKN042 BKN050 OVC110 86 60.1 42% 86 29.78 0.0
16 16:55 S 9 10.00 Overcast BKN042 BKN060 OVC110 84.2 68.9 60% 88 29.78 0.0
16 16:35 S 8 10.00 Overcast BKN042 OVC048 81.7 69.6 67% 85 29.78 0.0
16 16:15 S 9 10.00 Overcast BKN042 BKN050 OVC100 82 68.7 64% 85 29.78 0.0
16 15:55 SW 8 10.00 Overcast BKN047 OVC100 85.3 59.4 42% 85 29.78 0.0
16 15:35 SW 8 10.00 Overcast BKN045 BKN050 OVC090 85.8 59 40% 85 29.78 0.0
16 15:15 SW 10 10.00 Overcast SCT041 BKN050 OVC090 85.8 58.6 40% 85 29.78 0.0
16 14:55 W 7 10.00 Overcast SCT040 BKN050 OVC090 85.8 60.1 42% 86 29.79 0.0
16 14:35 SW 8 10.00 Overcast BKN040 BKN055 OVC100 86 57.9 39% 85 29.79 0.0
16 14:15 W 8 10.00 Overcast SCT038 BKN055 OVC090 85.3 60.4 43% 85 29.79 0.0
16 13:55 SW 8 G 17 10.00 Overcast SCT038 SCT055 OVC100 84.9 60.4 84.9 70 44% 85 29.8 0.0
16 13:35 SW 7 10.00 Mostly Cloudy BKN100 BKN120 84.6 59.7 43% 84 29.8 0.0
16 13:15 W 10 10.00 Overcast SCT035 OVC100 84 60.8 46% 84 29.8 0.0
16 12:55 SW 9 10.00 Overcast OVC100 83.7 60.6 46% 84 29.79 0.0
16 12:35 W 8 10.00 Mostly Cloudy BKN100 82.2 59.9 47% 83 29.79 0.0
16 12:15 W 6 10.00 Mostly Cloudy BKN100 BKN120 82.4 59.7 46% 83 29.79 0.0
16 11:55 W 8 10.00 Overcast OVC100 81.7 59.5 47% 82 29.79 0.0
16 11:35 W 7 10.00 Overcast OVC100 80.6 60.8 51% 81 29.79 0.0
16 11:15 NW 10 G 17 10.00 Overcast OVC100 79.5 62.8 57% 81 29.8 0.0
16 10:55 W 12 10.00 Overcast OVC100 78.8 64.4 61% 81 29.8 0.0
16 10:35 W 8 10.00 Overcast BKN100 OVC120 77.7 66.2 68% 80 29.79 0.0
16 10:15 NW 9 10.00 Mostly Cloudy SCT018 BKN100 BKN120 76.5 66.7 72% 78 29.79 0.0
16 09:55 W 12 G 20 10.00 Overcast BKN018 BKN100 OVC120 75.2 66.9 76% 76 29.79 0.0
16 09:35 W 14 G 21 10.00 Overcast BKN016 OVC100 74.8 68.2 80% 29.78 0.0
16 09:15 W 15 G 20 10.00 Overcast BKN014 OVC090 73.6 67.3 81% 29.77 0.0
16 08:55 W 15 G 21 10.00 Overcast BKN014 BKN036 OVC100 73 66.7 81% 29.76 0.0
16 08:35 NW 14 G 21 10.00 Overcast SCT014 BKN034 OVC040 71.6 65.5 81% 29.75 0.0
16 08:15 NW 12 G 18 10.00 Overcast SCT010 BKN028 OVC037 70.7 64.6 81% 29.74 0.0
16 07:55 NW 13 G 23 7.00 Overcast BKN008 OVC012 70 63.9 78.3 70 81% 29.72 0.0 0.07
16 07:35 NW 16 G 29 2.50 Overcast with Haze OVC010 70.7 64.6 81% 29.69 0.0
16 07:15 W 14 G 25 10.00 Overcast OVC010 70.7 64.6 81% 29.66 0.0
16 06:55 W 13 G 17 10.00 Overcast OVC013 71.1 64.8 81% 29.65 0.0
16 06:35 W 12 G 24 10.00 Overcast BKN013 BKN041 OVC049 71.6 65.5 81% 29.65 0.0
16 06:15 SW 10 G 21 10.00 Overcast BKN015 BKN045 OVC090 72.1 65.8 81% 29.65 0.0
16 05:55 SW 14 G 20 10.00 Overcast SCT017 SCT070 OVC090 72.9 66.6 81% 29.64 0.0
16 05:35 W 13 G 18 10.00 Overcast BKN019 SCT060 OVC120 73 66.7 81% 29.64 0.0
16 05:15 W 14 G 22 10.00 Overcast BKN019 OVC028 74.7 68.4 81% 29.65 0.0
16 04:55 SW 10 G 16 10.00 Overcast OVC021 76.5 70.2 81% 78 29.64 0.0 0.07
16 04:35 Calm 10.00 Overcast BKN023 BKN029 OVC110 76.3 70 81% 77 29.64 0.0
16 04:15 E 3 10.00 Overcast BKN023 BKN029 OVC110 75 68.7 81% 76 29.6 0.0
16 03:55 SE 3 10.00 Overcast OVC025 77 70.5 80% 79 29.63 0.0
16 03:35 SE 5 10.00 Overcast OVC027 75.9 69.6 81% 77 29.65 0.0
16 03:15 NE 5 10.00 Overcast OVC027 75.6 69.3 81% 76 29.66 0.0
16 02:55 Calm 10.00 Light Rain OVC027 77.2 70.9 81% 79 29.69 0.0 0.07
16 02:35 S 15 10.00 Overcast SCT028 OVC034 78.1 71.6 81% 80 29.7 0.0
16 02:15 S 9 10.00 Overcast BKN036 BKN055 OVC110 78.3 71.8 81% 81 29.69 0.0
16 01:55 S 6 10.00 Mostly Cloudy BKN110 78.3 72 84.2 76.1 81% 81 29.72 0.0
16 01:35 S 8 10.00 Mostly Cloudy BKN110 77.9 71.6 81% 80 29.73 0.0
16 01:15 S 5 10.00 Mostly Cloudy SCT032 BKN110 78.1 71.8 81% 80 29.74 0.0
16 00:55 S 5 10.00 Overcast SCT034 OVC100 78.1 71.8 81% 80 29.75 0.0
16 00:35 S 5 10.00 Overcast SCT036 SCT075 OVC110 77 70.7 81% 79 29.75 0.0
16 00:15 S 3 10.00 Overcast OVC110 76.6 70.3 81% 78 29.76 0.0
15 23:55 SW 3 10.00 Overcast OVC100 77.7 71.4 81% 80 29.75 0.0
15 23:35 S 3 10.00 Overcast OVC110 77 70.7 81% 79 29.75 0.0
15 23:15 Calm 10.00 Overcast OVC110 76.5 70.2 81% 78 29.75 0.0
15 22:55 Calm 10.00 Overcast OVC110 77 70.7 81% 79 29.75 0.0
15 22:35 S 3 10.00 Overcast OVC110 77.5 71.2 81% 79 29.77 0.0
15 22:15 S 5 10.00 Overcast SCT037 SCT065 OVC110 77.2 70.9 81% 79 29.77 0.0
15 21:55 S 6 10.00 Overcast BKN035 BKN043 OVC120 77.9 71.6 81% 80 29.78 0.0
15 21:35 SW 5 10.00 Mostly Cloudy SCT035 SCT041 BKN120 77.7 71.4 81% 80 29.78 0.0
15 21:15 S 7 10.00 Mostly Cloudy SCT036 BKN120 77.9 71.6 81% 80 29.76 0.0
15 20:55 S 5 10.00 Partly Cloudy SCT120 79 68.2 70% 81 29.76 0.0
15 20:35 S 5 10.00 Partly Cloudy SCT120 79.5 69.8 72% 82 29.76 0.0
15 20:15 S 5 10.00 Fair CLR 82 67.3 61% 85 29.77 0.0
15 19:55 Calm 10.00 Fair CLR 84.2 61.5 86.4 83.3 47% 85 29.78 0.0
15 19:35 SW 3 10.00 Partly Cloudy SCT110 84.7 60.4 44% 85 29.78 0.0
15 19:15 SW 8 10.00 Partly Cloudy SCT110 85.1 60.1 43% 85 29.79 0.0
15 18:55 W 5 10.00 Partly Cloudy SCT110 85.5 61.5 45% 86 29.79 0.0
15 18:35 SW 6 10.00 Mostly Cloudy BKN110 85.6 60.4 43% 86 29.79 0.0
15 18:15 W 7 10.00 Overcast BKN100 OVC120 85.6 60.4 43% 86 29.8 0.0
15 17:55 SW 5 10.00 Overcast BKN100 OVC120 86 62.2 45% 87 29.8 0.0
15 17:35 SW 7 10.00 Overcast OVC100 86.2 59.4 40% 86 29.8 0.0
15 17:15 SW 6 10.00 Overcast OVC100 85.8 59.4 41% 85 29.8 0.0
15 16:55 W 8 10.00 Overcast OVC100 86.2 60.1 41% 86 29.81 0.0
15 16:35 W 7 10.00 Overcast SCT039 OVC100 86.2 60.1 41% 86 29.82 0.0
15 16:15 W 7 10.00 Overcast SCT039 OVC100 86 57.9 39% 85 29.83 0.0
15 15:55 W 7 10.00 Overcast SCT039 OVC100 86 59.2 40% 86 29.84 0.0
15 15:35 W 6 10.00 Overcast BKN100 OVC120 85.5 58.3 40% 85 29.84 0.0
15 15:15 W 8 10.00 Overcast SCT038 OVC100 85.5 58.5 40% 85 29.85 0.0
15 14:55 W 8 10.00 Overcast BKN100 OVC120 84.7 59 42% 84 29.86 0.0
15 14:35 W 7 10.00 Overcast OVC100 83.5 58.8 43% 83 29.86 0.0
15 14:15 W 8 10.00 Mostly Cloudy SCT035 BKN100 83.8 58.6 42% 84 29.86 0.0
15 13:55 NW 9 10.00 Mostly Cloudy BKN100 83.1 59.4 83.1 74.5 45% 83 29.87 0.0
15 13:35 W 9 G 17 10.00 Mostly Cloudy BKN100 82.4 57.6 43% 82 29.87 0.0
15 13:15 W 8 10.00 Mostly Cloudy BKN100 BKN120 82.2 57.7 43% 82 29.87 0.0
15 12:55 NW 10 10.00 Mostly Cloudy SCT035 BKN100 81.1 57.6 45% 81 29.87 0.0
15 12:35 NW 10 G 20 10.00 Mostly Cloudy SCT029 BKN100 80.6 55.4 42% 81 29.87 0.0
15 12:15 NW 16 G 23 10.00 Mostly Cloudy SCT029 SCT085 BKN110 79.9 57.7 47% 80 29.87 0.0
15 11:55 NW 13 G 23 10.00 Partly Cloudy SCT025 SCT095 SCT120 79 61.5 55% 80 29.86 0.0
15 11:35 NW 15 G 21 10.00 Partly Cloudy SCT021 SCT095 SCT120 77.9 64.4 63% 80 29.85 0.0
15 11:15 W 10 G 18 10.00 Mostly Cloudy BKN021 BKN026 BKN120 76.5 66 70% 78 29.85 0.0
15 10:55 W 10 G 18 10.00 Overcast BKN021 OVC026 75.4 65.8 72% 77 29.84 0.0
15 10:35 W 8 G 17 10.00 Overcast BKN021 OVC026 74.8 66.7 76% 29.83 0.0
15 10:15 W 12 G 17 10.00 Overcast OVC023 75.4 66.4 74% 77 29.84 0.0
15 09:55 W 13 G 20 10.00 Overcast SCT023 BKN029 OVC050 75.2 66.4 74% 76 29.85 0.0
15 09:35 SW 12 G 21 10.00 Mostly Cloudy SCT025 SCT029 BKN050 75.2 65.7 72% 77 29.85 0.0
15 09:15 SW 13 G 16 10.00 Partly Cloudy SCT025 SCT032 SCT070 75.2 68.4 79% 76 29.85 0.0
15 08:55 SW 10 10.00 Partly Cloudy SCT110 75.4 68.9 80% 76 29.86 0.0
15 08:35 S 3 10.00 Light Rain SCT032 SCT049 OVC110 74.5 68.2 81% 29.85 0.0
15 08:15 SW 6 10.00 Mostly Cloudy BKN100 BKN120 74.7 68.4 81% 29.86 0.0
15 07:55 SW 5 10.00 Mostly Cloudy BKN110 74.7 68.4 74.8 72.5 81% 29.85 0.0
15 07:35 SW 5 10.00 Overcast OVC110 74.7 68.4 81% 29.84 0.0
15 07:15 SW 5 10.00 Mostly Cloudy BKN110 74.5 68.2 81% 29.84 0.0
15 06:55 SW 6 10.00 Mostly Cloudy BKN110 74.5 68.2 81% 29.83 0.0
15 06:35 SW 6 10.00 Overcast OVC110 74.7 68.4 81% 29.84 0.0
15 06:15 SW 8 10.00 Overcast BKN100 OVC120 74.8 68.5 81% 29.85 0.0
15 05:55 S 9 10.00 Overcast SCT027 OVC100 74.3 68 81% 29.84 0.0
15 05:35 S 8 10.00 Overcast BKN025 BKN070 OVC110 74.3 68 81% 29.83 0.0
15 05:15 SW 12 10.00 Overcast SCT027 BKN070 OVC100 74.3 68 81% 29.85 0.0
Date Time (edt) Wind (mph) Vis. (mi.) Weather Sky Cond. Air Dwpt Max. Min. Relative Humidity Wind Chill (°F) Heat Index (°F) altimeter (in) sea level (mb) 1 hr 3 hr 6 hr
6 hour
Temperature (ºF) Pressure Precipitation (in)